This is the latest recevied weather packets stored in our database for station/object PE1RXF-13. If no packets are shown the sender has not sent any weather packets the latest 10 day(s).
| Time | Temp. | Humidity | Pressure | Rain* | Wind** | Luminosity | Snow |
|---|---|---|---|---|---|---|---|
| 1788379937 | 15.56° C | 99% | 1017.6 hPa | 0 mm | - | 0 W/m² | - |
| 1788378834 | 15.56° C | 99% | 1017.7 hPa | 0 mm | - | 0 W/m² | - |
| 1788377731 | 15.56° C | 99% | 1017.7 hPa | 0 mm | - | 0 W/m² | - |
| 1788376628 | 15.56° C | 99% | 1017.7 hPa | 0 mm | - | 0 W/m² | - |
| 1788375525 | 15.56° C | 99% | 1017.9 hPa | 0 mm | - | 0 W/m² | - |
| 1788374422 | 16.11° C | 99% | 1017.7 hPa | 0 mm | - | 0 W/m² | - |
| 1788373319 | 16.67° C | 99% | 1017.6 hPa | 0 mm | - | 0 W/m² | - |
| 1788372216 | 17.22° C | 99% | 1017.5 hPa | 0 mm | - | 1 W/m² | - |
| 1788371113 | 17.78° C | 99% | 1017.5 hPa | 0 mm | - | 4 W/m² | - |
| 1788370011 | 18.33° C | 95% | 1017.5 hPa | 0 mm | - | 10 W/m² | - |
| 1788368907 | 18.89° C | 91% | 1017.5 hPa | 0 mm | - | 16 W/m² | - |
| 1788367804 | 20.56° C | 78% | 1017.4 hPa | 0 mm | - | 18 W/m² | - |
| 1788366701 | 20.56° C | 87% | 1017.5 hPa | 0 mm | - | 63 W/m² | - |
| 1788365598 | 20.56° C | 97% | 1017.5 hPa | 0 mm | - | 55 W/m² | - |
| 1788364495 | 19.44° C | 99% | 1017.7 hPa | 0 mm | - | 35 W/m² | - |
| 1788363392 | 20.56° C | 99% | 1017.6 hPa | 0 mm | - | 39 W/m² | - |
| 1788362289 | 20.56° C | 99% | 1017.6 hPa | 0 mm | - | 108 W/m² | - |
| 1788361186 | 21.11° C | 94% | 1017.7 hPa | 0 mm | - | 28 W/m² | - |
| 1788360083 | 20.56° C | 99% | 1017.7 hPa | 0.25 mm | - | 111 W/m² | - |
| 1788358980 | 18.89° C | 99% | 1017.7 hPa | 0.25 mm | - | 45 W/m² | - |
| 1788357877 | 21.11° C | 99% | 1017.7 hPa | 0.25 mm | - | 34 W/m² | - |
| 1788356774 | 19.44° C | 99% | 1017.8 hPa | 2.79 mm | - | 141 W/m² | - |
| 1788355671 | 17.22° C | 99% | 1017.9 hPa | 2.79 mm | - | 56 W/m² | - |
| 1788354568 | 16.67° C | 99% | 1018.1 hPa | 2.79 mm | - | 66 W/m² | - |
| 1788353465 | 16.67° C | 99% | 1018.4 hPa | 0 mm | - | 26 W/m² | - |
* Rain latest hour (hover to see other rain measurements)
** Current wind speed in m/s (hover to see current wind gust speed)